Regional Weather Roundup
Issued by NWS Charleston, SC

Current Version | Previous Version | Graphics & Text | Print | Product List | Glossary On
Versions: 1 2 3 4 5 6 7 8 9 10 11 12 13 14 15 16 17 18 19 20 21 22 23 24 25 26 27 28 29 30 31 32 33 34 35 36 37 38 39 40 41 42 43 44 45 46 47 48 49 50
000 ASUS42 KCHS 181927 RWRCHS Regional Weather Roundup National Weather Service Charleston SC 200 PM EST SUN FEB 18 2018 NOTE: "fair" indicates few or no clouds below 12,000 feet with no significant weather and/or obstructions to visibility. Not all stations are quality controlled. Use data with caution, especially dewpoint observations. SCZ027-030-031-034>040-042>050-182000- ...Southeast South Carolina... CITY SKY/WX TMP DP RH WIND PRES REMARKS N Charleston CLOUDY 64 50 60 E13 30.30R Waterfront Prk N/A 60 53 77 NE16 30.16R Mount Pleasant CLOUDY 63 50 63 NE7 30.30F Johns Island CLOUDY 63 52 67 NE14G23 30.30S Pinopolis N/A 63 55 77 E6 30.21F Moncks Corner CLOUDY 61 48 63 E5 30.30S HAZE Summerville RAIN 61 57 88 E3 30.30S Beaufort MCAS CLOUDY 66 62 87 SE12 30.27S Beaufort Arpt CLOUDY 63 57 82 E9G16 30.27F HAZE Hilton Head Is PTSUNNY 63 59 88 NE6 30.28S Walterboro CLOUDY 61 57 88 NE7 30.29S Allendale MOCLDY 68 55 64 VRB6 30.26F ...Southern Midlands and Pee Dee... CITY SKY/WX TMP DP RH WIND PRES REMARKS Georgetown CLOUDY 59 46 63 E12G18 30.32F Kingstree CLOUDY 64 50 59 E7 30.29F Orangeburg CLOUDY 66 49 54 NE9 30.28F Barnwell N/A 68 54 60 E6 30.27F Aiken CLOUDY 64 50 59 E8 30.30F Manning CLOUDY 63 32 31 MISG 30.29F Columbia PTSUNNY 68 48 48 NE7 30.27F Sumter CLOUDY 66 45 46 E7 30.27F Florence PTSUNNY 66 44 45 NE9 30.30F Myrtle Beach PTSUNNY 58 49 72 E13 30.33S N Myrtle Beach CLOUDY 58 49 72 E12G21 30.32S $$ GAZ063-065-086>088-099>101-113>116-118-119-134>141-150-182000- ...Southeast Georgia... CITY SKY/WX TMP DP RH WIND PRES REMARKS Savannah Arpt CLOUDY 72 63 73 E7 30.25F Hunter AAF PTSUNNY 71 64 79 E5 30.22F Fort Stewart PTSUNNY 71 62 73 E3 30.22F Statesboro CLOUDY 69 57 65 E5 30.25F Sylvania CLOUDY 68 62 78 E5 30.27F Claxton CLOUDY 76 64 67 N5 30.23F ...CSRA, Central and far Southeast Georgia... CITY SKY/WX TMP DP RH WIND PRES REMARKS Thomson CLOUDY 65 52 62 S7 30.31F Augusta-Bush CLOUDY 70 49 47 E8 30.25F Augusta-Daniel CLOUDY 67 48 50 NE8 30.27F Swainsboro CLOUDY 70 59 68 CALM 30.25F Vidalia CLOUDY 72 63 73 CALM 30.24F Eastman CLOUDY 75 54 46 NE3 30.25F Hazlehurst FAIR 75 60 59 CALM 30.22F Alma CLOUDY 75 64 68 NE3 30.22F Waycross FAIR 79 59 50 CALM 30.21F Jesup CLOUDY 73 63 68 CALM 30.23F Baxley CLOUDY 72 64 78 CALM 30.22F Brunswick PTSUNNY 79 63 57 E3 30.23F Saint Simons FAIR 75 64 68 E9 30.23F $$ SCZ027-028-034-036>038-045-046-048>050-GAZ119-141-182000- ...Lake and Supplemental Coastal Observations... STATION/POSITION TIME TEMP WIND PRES WAVE SWELL AIR SEA DIR/SP/G HT/PER HT/PER/DIR (UTC) (F) (DEG/KT/KT) (MB) (FT/S) (FT/S/D) Winyah Bay 1845 56 80/ 12 1027.0S Lake Murray 1830 63 120/ 5/ 8 1025.1F ACE Basin NERRS 1845 65 80/ 4 1025.0S Fort Pulaski 1900 63 59 80/ 11/ 14 1025.1 Sapelo Island 1900 77 90/ 5 1024.0 $$ ANZ835-935-AMZ111-154-330-350-352-354-370-450-454-472-182000- ...C-MAN and Buoy Observations... STATION/POSITION TIME TEMP WIND PRES WAVE SWELL AIR SEA DIR/SP/G HT/PER HT/PER/DIR (UTC) (F) (DEG/KT/KT) (MB) (FT/S) (FT/S/D) Buoy 41004 1910 65 60/ 17/ 21 1025.5 Buoy 41008 1850 64 61 30/ 4/ 4 1024.0F 2/11 2/100/11 Folly Beach CMAN 1900 59 40/ 20/ 22 1026.4F Capers Nearshore 1908 54 56 60/ 17/ 23 1025.5F Fripp Nearshore 1908 57 59 70/ 16/ 21 1024.7R STATION/POSITION TIME TEMP WIND PRES WAVE SWELL AIR SEA DIR/SP/G HT/PER HT/PER/DIR (UTC) (F) (DEG/KT/KT) (MB) (FT/S) (FT/S/D) 5E St. Marys GA 1900 61 N/A 1/11 Frying Pan Buoy 1910 60 50/ 21/ 25 1026.4 Buoy 41025 1910 52 20/ 23/ 29 1028.6 Cape Lookout NC 1900 50/ 28/ 30 1028.4F Buoy 41002 1850 70 73 30/ 17/ 21 1023.7R 4/ 7 3/290/ 7 Buoy 41010 NOT AVBL St Augustine FL 1900 61 60 90/ 8/ 8 1024.2F $$

USA.gov is the U.S. government's official web portal to all federal, state and local government web resources and services.